Вернуться в каталог

STARLINK-11519

АктивенСвязьVLEO
NORAD 62560·PAYLOAD·🇺🇸 United States

Запущен Jan 10, 2025 с Cape Canaveral Space Force Station

Loading…

Ближайшие Пролёты (ближайшие 24 часа)

TLE

СвежийSource: CelesTrak SupGP

Эпоха: Sep 15, 2026, 02:30 UTC

1 62560C 25006G   26258.10465278  .00025450  00000+0  19758-3 0  2584
2 62560  43.0006  78.5590 0001518 277.0252 241.7939 15.70836806    18

Отслеживайте STARLINK-11519 в реальном времени с AllMySat

Download on the App Store